Location: Madrid
(40.4000°N, 3.6830°W)
Time: 18:22:27
(UTC+01:00)

ISS - Pass Details

Date: 23 January 2020
Orbit: 415 x 422 km, 51.6° (Epoch: 23 January)

Event Time Altitude Azimuth Distance (km) Brightness Sun altitude
Rises 20:44:52 0° 277° (W) 2,366 1.3 -27.1°
Reaches altitude 10° 20:47:28 10° 297° (WNW) 1,502 -0.2 -27.6°
Enters shadow 20:48:24 14° 311° (NW) 1,271 -0.8 -27.8°
